Погода в Кала-Боне

Испания     39°36′44″N   3°23′22″E
темп.,
°C
ветер,
м/с
пор.,
м/с
влажн.,
%
обл.,
%
осадки,
мм/ч
давл.,
гПа
погр.,
м
11 мая, вт
вт1123:00+17ююз91187100 0.4 1012625
02:00+18ююз911821 0.8 1012669
05:00+17юз811820 0.4 1010367
08:00+17зюз912740 0.4 1011524
11:00+18зюз910650 0.0 1014556
14:00+18сз685990 0.0 1015260
17:00+19зсз69485 0.0 1016213
20:00+18зсз56495 0.0 1017106
12 мая, ср
ср1223:00+17зюз69621 0.0 1019382
02:00+17зюз710700 0.0 1019406
05:00+16з58820 0.0 1017279
08:00+17зюз45770 0.0 1017214
11:00+18юз8107412 0.0 1016344
14:00+20зюз1115535 0.0 1015343
17:00+20зюз12155437 0.0 1014339
20:00+19зюз8116799 0.0 1014202
13 мая, чт
чт1323:00+18зюз7108298 0.0 1014189
02:00+17зюз611845 0.0 1014200
05:00+17всв77775 0.0 1014406
08:00+16всв547169 0.0 1015643
11:00+16в326622 0.0 1016556
14:00+17ююв547088 0.0 1015463
17:00+17вюв43715 0.0 1013322
20:00+18юз676525 0.0 1012297
14 мая, пт
пт1423:00+17юз587399 0.0 1013303
02:00+18ююз7117960 0.0 1011340
05:00+18юз7984100 0.0 1009325
08:00+18з2282100 0.1 101052
11:00+19ссв4470100 0.0 101193
14:00+18с9106990 0.0 1012486
17:00+17с10117332 0.4 1013689
20:00+16ссв1010706 0.5 1015974
15 мая, сб
сб1523:00+15ссв2360100 0.0 1018359
02:00+16ююз336213 0.0 1018292
05:00+16зюз577022 0.0 1018426
08:00+16зюз4670100 0.0 1018291
11:00+18юз566840 0.0 1019381
14:00+18юз91169100 0.0 1018379
17:00+18юз9116997 0.0 1017338
20:00+19юз71068100 0.0 1018222